Showing default

TELKOMSAT 113BT, 58995

Orbit data source: Space-Track

TELKOMSAT 113BT, 58995 is a payload satellite owned by Telkom (ID) in GEO that was launched on Tue, 20 Feb 2024 UTC via an FALCON 9 launch vehicle from the Air Force Eastern Test Range (AFETR). Payload-class satellites include a variety of spacecraft equipped with specific instruments for various scientific and technological missions. These include communications satellites like Starlink; space stations such as the ISS; scientific satellites like the Hubble; Earth observation satellites from companies like Planet Labs, Umbra, and HawkEye 360; GPS; miniature CubeSats for education and research; and military/defense satellites.

Not visible in the next 10 days
Identifier
58995, 2024-035A
Orbit
GEO
Country
Flag of UnknownUnknown / INDO
Related business
Manufacturer
Thales Alenia
Mission
Operational Commercial Communications
Bus & Motor
SPACEBUS 4000B2, S400
Mass
4,000 kg wet, ~2,500 kg dry
Launch date (UTC)
2024-02-20 (2 years ago)
Launch vehicle
FALCON 9
Launch site
Air Force Eastern Test Range (AFETR)
Object type
Payload
Rocket body
Debris
Shape & HBR
Box + 2 Pan, 15.0 m
Radar Cross Section
48.465 m², Large (>1 m²)

Expand to show TLE details & history
Last TLE update: 1 day ago

TLE from 1 day ago
0 TELKOMSAT 113BT
1 58995U 24035A   25308.34414478 -.00000345  00000-0  00000-0 0  9996
2 58995   0.0044  41.1417 0001664 193.0651  46.5080  1.00270090  6330
Epoch: 2025-11-04T08:15Z
TLE epoch observation values (Epoch: 2025-11-04T08:15:34.108Z)
Latitude
-0.01052°
Longitude
112.9644°
Altitude
35,781.72 km
Speed
3.075 km/s
True Right ascension
18h 42m 45s
True Declination
0° 00' 38"
Sunlit
Object was in daylight at epoch
Visualization orbit readout
Latitude
Unknown
Longitude
Unknown
Altitude
Unknown
Speed
Unknown
Apparent Right ascension
Unknown
Apparent Declination
Unknown
Sunlit
N/A
Visualization observer readout
Local Sidereal Time
08:03:13
Azimuth
Unknown
Elevation
Unknown
Doppler factor
Unknown
Orbital elements
Apogee altitude
35,795.157 km
Perigee altitude
35,781.124 km
Semi-major axis
42,166.278 km
Eccentricity
0.00017
Inclination
0.0044°
RAAN
41.1417°
Arg. of periapsis
193.0651°
True anomaly
46.52184°
Mean anomaly
46.508°
Eccentric anomaly
46.51492°
Mean motion
0.25067 °/min
Orbital period
1,436.17 mins
BSTAR
0
Loading maneuver chart data...
Computing Atmospheric mass density...
Loading historical data...
Loading historical data...
Loading historical data...
Loading historical data...
Loading historical data...
Loading historical data...
Loading historical data...
Other satellites on launch #35 in the year 2024 (2024-02-20 UTC)

Documentation

Showing up to 5 results
|